Погода в Тихвине

Погода в Тихвине : погода сейчас, прогноз погоды и архив. Всё, что Вы хотите узнать о погоде в Тихвине!

Хотите узнать прогноз погоды в Тихвине? Тогда Вам сюда: Погода в Тихвине

Поиск расширенной информации на нашем сайте:

Другие новости

Новости СМИ2

Главная страница сайта

Новости сайта

03.07.2017

Напоминаем, что на нашем специализированном сайте Метеоцентр.Азия вы можете получить высокодетализированные автоматические прогнозы погоды по пунктам России, СНГ и мира в авиационном формате (включающие направление и скорость ветра, видимость, явления погоды, количество и форму облачности, нижнюю и верхнюю границу облачности).


Погода в Тихвине - сегодня

Время (UTC), дата Ветер
(°,м/с) 
Видим.   Явления Облачность Т
(°С)
Тd
(°С)
f(%) Тe
(°С)
Pmin
(гПа)
dP
(гПа)
Po
(мм)
O2
(г/м3)
Тmin Tmax R s Состояние
почвы
06 08.10.18 270 (З) 30000 м    ясно 
-0.6 -1.2 96 1018.2  758  306  -2      замёрзшая 
09 08.10.18 220 (ЮЗ) 40000 м    4/3 1000 м верхняя 
[Sc|Ci fib]
+4.1 +1.8 85 +4  1020.5  2.4  760  301           
15 08.10.18 180 (Ю) 20000 м    9/0 средняя 
[Ac trans]
+3.6 +2.1 90 +3  1022.3  0.5  761  302           
18 08.10.18 180 (Ю) 20000 м    ясно 
+2.4 +1.6 94 +3  1021.5  -0.8  760  304    +7.6       
21 08.10.18 180 (Ю) 20000 м    4/0 средняя 
[Ac trans]
+2.6 +1.8 94 +2  1021.1  -0.4  760  303           
00 09.10.18 180 (Ю) 20000 м    10/0 средняя 
[Ac und]
+3.5 +2.5 93 +2  1019.8  -1.3  759  302           
03 10.10.18 230 (ЮЗ) 20000 м    10/10 750 м 
[Sc]
+9.7 +6.9 83 +9  1010.3  -2.6  752  292  +7    0.3     
06 10.10.18 220 (ЮЗ) 3{10}  9000 м  слаб. дождь  10/10 450 м 
[Frnb|Ns]
+9.8 +7.7 87 +9  1010.1  0.1  752  291  +7.4    0.0    влажная 
21 10.10.18 270 (З) 4000 м  дымка  ясно 
+5 +4.8 99 +6  1023.7  2.6  762  301           
00 11.10.18 250 (З) 1000 м  туман  ясно 
+3.8 +3.6 99 +5  1026  2.3  764  303           
09 11.10.18 180 (Ю) 15000 м  {туман}  8/3 200 м верхняя 
[St|Ci ing]
+7.3 +7.1 99 +8  1031.1  1.5  768  300           
15 11.10.18 180 (Ю) 20000 м    8/0 средняя 
[Ac trans]
+8.6 +6.7 88 +10  1030.8  -0.7  767  299           
21 11.10.18 190 (Ю) 2000 м  дымка  ясно 
+4.4 +4.2 99 +5  1032.2  0.1  768  304           
00 12.10.18 190 (Ю) 4000 м  дымка  ясно 
+4.8 +4.6 99 +6  1031.6  -0.6  768  303           
21 12.10.18 240 (ЮЗ) 10 км    10/10 300 м 
[St]
+8.3 +7.9 97 +8  1027.9  -0.7  765  298           
03 13.10.18 220 (ЮЗ) 2000 м  дымка  10/10 240 м 
[St]
+10.2 +9.8 97 +12  1026.2  -0.8  764  295  +7.1    0.0     
21 13.10.18 230 (ЮЗ) 10 км    10/10 270 м 
[St]
+10.8 +10.6 99 +13  1022.8  -0.4  761  293           
09 14.10.18 240 (ЮЗ) 9000 м  дымка{туман}  8/3 300 м верхняя 
[St|Ci]
+13.8 +12.1 89 +18  1024.6  763  290           
15 14.10.18 200 (Ю) 20000 м    6/0 верхняя 
[Cs]
+13.6 +11.7 88 +17  1023.7  -0.1  762  290           
18 14.10.18 230 (ЮЗ) 10 км    ясно 
+12.3 +10.6 89 +15  1023.7  762  292    +19.1       
21 14.10.18 220 (ЮЗ) 4000 м  дымка  ясно 
+10.6 +10 96 +12  1024.5  0.7  763  294           
00 15.10.18 210 (ЮЗ) 0200 м  туман  ясно 
+7.4 +7.2 99 +8  1024.5  763  298           
09 15.10.18 190 (Ю) 40000 м    ясно 
+14.7 +10.7 77 +17  1023.3  -0.5  762  289           
12 15.10.18 200 (Ю) 40000 м    ясно 
+18.2 +8.6 53 +19  1022.5  -0.7  761  286           
15 15.10.18 200 (Ю) 20000 м    ясно 
+13 +7.9 71 +14  1021.6  -0.9  761  291           
Время (UTC), дата Ветер
(°,м/с) 
Видим.   Явления Облачность Т
(°С)
Тd
(°С)
f(%) Тe
(°С)
Pmin
(гПа)
dP
(гПа)
Po
(мм)
O2
(г/м3)
Тmin Tmax R s Состояние
почвы

Для получения пояснительной информации подведите курсор к названию столбца.

ПОГОДА в Тихвине - архив

Всё, что Вы хотите узнать о погоде в Тихвине - удобно и подробно!

Выберите нужную дату (начиная с 1 января 2015* года) и нажмите кнопку "Найти".
Будут отображены архивные сводки погоды по пункту Тихвин, начиная с указанной даты.


Отображать данные в формате CSV (для использования в таблицах Excel)


Внимание! Наш архив погоды предназначен исключительно для личного некоммерческого использования в познавательных целях. Если Вам необходимы официальные справки о состоянии погоды (для производственных, юридических, коммерческих и т.п. целей), обращайтесь в органы Росгидромета.

*Примечание: данная дата относится к архиву по метеостанциям СССР (Россия, СНГ, Балтия).
Архив по метеостанциям Зарубежной Европы и Азии (кроме Китая) хранится 10 дней, по другим регионам земного шара (Китай, Африка, Америка, Австралия, Океания) - 1 день.

Тихвин - район местоположения метеостанции


Название, широта, долгота, высота метеостанции:
Тихвин 59.6°ш. 33.6°д. 61 м над ур. моря [Российская Федерация]

Дополнительная информация

В oтличие oт бoльшинства пoгoдных сайтoв мы публикуем пoдрoбную метеoинфoрмацию в детальнoм прoфессиoнальнoм фoрмате.

Характеристики температуры и влажнoсти вoздуха измеряются на высoте 2 м в тени вдали oт зданий и деревьев.
Скoрoсть ветра измеряется на высoте 10 м (на урoвне рoста челoвека скoрoсть ветра ниже в 1.5-2 раза). Если метеoстанция нахoдится в гoрoде или в лесу, тo скoрoсть ветра занижена на 2-4 м/с пo сравнению с oткрытым местoм. Скoрoсть ветра над акватoриями крупных рек и oзёр, а также на вершинах хoлмoв на 2-5 м/с выше, чем в oбычных услoвиях.
Атмoсфернoе давление в разных тoчках местнoсти мoжет значительнo oтличаться oт давления на метеoстанции, в зависимoсти oт услoвий рельефа (при пoдъёме на 10 м давление пoнижается примернo на 1 мм рт.ст.).